sat.trackr.live / text

‹ back to catalog

INTELSAT 39 (IS-39)

NORAD 44476 · 2019-049B

PAYLOAD ACTIVE UNKNOWN

§ Identity

Operator
Country
ITSO
Launch date
2019-08-06
Launch site
FRGUI
Launch vehicle
Mass (kg)
RCS (m²)

Purposes: comms

External: N2YO · Heavens-Above · Gunter

§ Orbital elements

Epoch: 2026-09-19T12:08:04.733376Z

Period
1,436.09 min
Inclination
0.0176°
Eccentricity
0.0000878
Mean motion
1.00271987 rev/d
Perigee alt
35,782.8 km
Apogee alt
35,790.2 km
Semi-major
42,164.7 km
B*
0.0000e+0
RAAN
199.7202°
Arg perigee
257.1016°
Mean anomaly
145.5634°
Rev number
2,607

§ Raw data

INTELSAT 39 (IS-39)1 44476U 19049B   26262.50561034  .00000029  00000+0  00000+0 0  99992 44476   0.0176 199.7202 0000878 257.1016 145.5634  1.00271987 26074

JSON: /api/v1/satellites/44476 · /tle

For live sub-satellite position, see the globe view (requires WebGL).

§ Visibility from observer

Set your observer location to see the next 7 days of passes ≥ 10°. The values pass through the URL so the page stays shareable.

No JS? Fill the form by hand. The geolocation button needs JavaScript.